Find Starlink 5043

NORAD ID: 53894 Int'l Des: 2022-119 Owner: SPXS Country: US Constellation: starlink operational
LEOCIRCULAR

現在のビュー

3D地球を読み込み中...

About Starlink 5043

Starlink 5043 (NORAD 53894) is a starlink constellation satellite (v1.5) launched Sep 24, 2022 by SPXS of US. It operates in LEO, CIRCULAR orbit with a mass of 305.00 kg.

Starlink 5043について

説明を読み込み中...

次回通過

Passes for default location (London). Set your location on the main map for personalized predictions.

高度履歴

Loading altitude history...

軌道要素

1 53894U 22119J 26170.58335648 -.00455414 00000-0 -78907-2 0 9990
2 53894 53.2389 219.3426 0000815 31.6749 271.8671 15.51939159 5704
Epoch: Jun 19, 2026 • Age: 6 hours

現在のステータス

高度 412.5 km
速度 7.67 km/s
衛星直下点 20.04°N, 178.69°W
打ち上げ日 Sep 24, 2022
運用期間 3.7 years
タイプ internet

技術仕様

分類 Payload
質量 305.00 kg
乾燥質量 290.00 kg
総質量 305.00 kg
長さ 0.20 m
直径 2.80 m
スパン 9.00 m
形状 Box + pan
製造者 SPXS
バスタイプ Starlink
フェーズステータス In Orbit
所有者/国 SPXS/US

Most Searched